{"data":{"norad_id":64557,"epoch":"2026-09-21T19:54:02.001312Z","epoch_age_seconds":66903,"freshness":"FRESH","line1":"1 64557U 25135AF  26264.82918983  .00003172  00000+0  14510-3 0  9997","line2":"2 64557  97.4787  19.3531 0002029  56.1403 304.0026 15.21261808 69559","mean_motion":15.21261808,"eccentricity":0.0002029,"inclination_deg":97.4787,"raan_deg":19.3531,"arg_perigee_deg":56.1403,"mean_anomaly_deg":304.0026,"bstar":0.0001451,"rev_number":6955,"period_min":94.658262793908,"perigee_km":500.63749843576,"apogee_km":503.42947161858,"semimajor_km":6880.1704850272,"source":"CELESTRAK","updated_at":"2026-09-22T09:00:29.846640Z"}}